Location: Eaton
(41.3139°N, 82.0207°W)
Time: 19:08:36
(UTC+00:00)

X-37B - Visible Passes

Search period start: 21 October 2021 00:00
Search period end: 31 October 2021 00:00
Orbit: 385 x 389 km, 45.0° (Epoch: 17 October)

Date Brightness Start Highest point End Pass type
(mag) Time Alt. Az. Time Alt. Az. Time Alt. Az.
21 Oct 2.2 00:36:39 10° WNW 00:38:40 32° NW 00:38:40 32° NW visible
21 Oct 1.4 23:38:14 10° WNW 23:41:17 40° N 23:42:53 22° ENE visible
22 Oct 4.1 01:14:55 10° WNW 01:15:09 12° WNW 01:15:09 12° WNW visible
23 Oct 0.9 00:16:33 10° WNW 00:19:24 58° NNW 00:19:24 58° NNW visible
23 Oct 1.1 23:18:10 10° WNW 23:21:17 47° N 23:23:42 15° E visible
24 Oct 3.4 00:54:52 10° WNW 00:55:59 19° W 00:55:59 19° W visible
24 Oct 0.5 23:56:27 10° WNW 23:59:37 84° SSW 00:00:21 50° ESE visible
25 Oct 0.7 22:58:05 10° WNW 23:01:14 64° NNE 23:04:24 10° E visible
26 Oct 2.6 00:34:58 10° W 00:37:08 25° SW 00:37:08 25° SW visible
26 Oct 1.3 23:36:24 10° WNW 23:39:29 49° SSW 23:41:43 16° SE visible
28 Oct 3.2 00:15:27 10° WSW 00:17:25 15° SW 00:18:48 12° S visible
28 Oct 2.6 23:16:30 10° W 23:19:15 27° SSW 23:22:00 10° SSE visible
30 Oct 3.6 22:56:59 10° WSW 22:58:56 15° SW 23:00:54 10° S visible
